K6OUA-11 Weather Reports


time (UTC)temp
C
wind
direction
speed
KPH
gust
KPH
rain 1hr
cm
rain 24hr
cm
rain mn
cm
humidity
%
barometer
mb
20260902165904 23 137 4.8 8.0 0.00 0.00 0.00 53
20260902165702 23 102 6.4 9.7 0.00 0.00 0.00 53
20260902165500 23 132 0.0 9.7 0.00 0.00 0.00 55
20260902165259 23 116 3.2 9.7 0.00 0.00 0.00 55
20260902165057 22 143 3.2 6.4 0.00 0.00 0.00 56
20260902164855 22 104 8.0 6.4 0.00 0.00 0.00 57
20260902164451 22 91 1.6 3.2 0.00 0.00 0.00 59
20260902164251 21 275 0.0 3.2 0.00 0.00 0.00 59
20260902164047 21 275 0.0 4.8 0.00 0.00 0.00 59
20260902163845 21 172 0.0 4.8 0.00 0.00 0.00 60
20260902163643 21 282 1.6 1.6 0.00 0.00 0.00 58
20260902163441 21 258 1.6 1.6 0.00 0.00 0.00 59
20260902163239 21 247 0.0 6.4 0.00 0.00 0.00 61
20260902163037 21 210 0.0 6.4 0.00 0.00 0.00 60
20260902162852 21 213 1.6 8.0 0.00 0.00 0.00 61
20260902162835 21 210 0.0 6.4 0.00 0.00 0.00 61
20260902162633 21 213 1.6 8.0 0.00 0.00 0.00 61
20260902162431 20 260 0.0 8.0 0.00 0.00 0.00 61
20260902162229 20 285 4.8 4.8 0.00 0.00 0.00 61
20260902161825 20 234 0.0 4.8 0.00 0.00 0.00 64
20260902161623 20 215 0.0 6.4 0.00 0.00 0.00 65
20260902161421 20 215 0.0 6.4 0.00 0.00 0.00 65
20260902161219 20 225 1.6 8.0 0.00 0.00 0.00 66
20260902161018 20 241 0.0 8.0 0.00 0.00 0.00 66
20260902160816 19 292 0.0 8.0 0.00 0.00 0.00 67
20260902160614 19 262 1.6 8.0 0.00 0.00 0.00 67
20260902160412 19 265 0.0 8.0 0.00 0.00 0.00 68
20260902160210 19 285 3.2 6.4 0.00 0.00 0.00 69
20260902155806 18 293 4.8 6.4 0.00 0.00 0.00 69
20260902155604 18 299 4.8 0.0 0.00 0.00 0.00 71
20260902155546 18 267 0.0 0.0 0.00 0.00 0.00 71
20260902155430 18 267 0.0 0.0 0.00 0.00 0.00 72
20260902155402 18 303 3.2 0.0 0.00 0.00 0.00 71
20260902155200 18 267 0.0 0.0 0.00 0.00 0.00 71
20260902154958 18 267 0.0 0.0 0.00 0.00 0.00 72
20260902154800 18 267 0.0 6.4 0.00 0.00 0.00 72
20260902154750 18 267 0.0 6.4 0.00 0.00 0.00 73
20260902154555 18 267 0.0 6.4 0.00 0.00 0.00 72
20260902154353 18 267 0.0 6.4 0.00 0.00 0.00 73
20260902154151 17 267 1.6 0.0 0.00 0.00 0.00 73
20260902153949 17 253 0.0 0.0 0.00 0.00 0.00 74
20260902153748 17 227 0.0 0.0 0.00 0.00 0.00 74
20260902153343 17 227 0.0 0.0 0.00 0.00 0.00 73
20260902153141 17 227 0.0 0.0 0.00 0.00 0.00 74
20260902152939 17 227 0.0 0.0 0.00 0.00 0.00 74
20260902152535 17 227 0.0 0.0 0.00 0.00 0.00 74
20260902152334 17 227 0.0 0.0 0.00 0.00 0.00 73
20260902152132 17 227 0.0 0.0 0.00 0.00 0.00 73
20260902151930 17 227 0.0 0.0 0.00 0.00 0.00 72
20260902151728 17 227 0.0 0.0 0.00 0.00 0.00 72
20260902151526 17 227 0.0 0.0 0.00 0.00 0.00 73
20260902151324 17 227 0.0 0.0 0.00 0.00 0.00 71
20260902151122 17 227 0.0 0.0 0.00 0.00 0.00 71
20260902150920 17 227 0.0 0.0 0.00 0.00 0.00 71
20260902150718 17 227 0.0 0.0 0.00 0.00 0.00 72
20260902150349 17 63 0.0 0.0 0.00 0.00 0.00 73
20260902150315 17 63 0.0 0.0 0.00 0.00 0.00 73
20260902150113 17 63 0.0 0.0 0.00 0.00 0.00 74
20260902145911 16 63 0.0 0.0 0.00 0.00 0.00 75
20260902145507 16 63 0.0 3.2 0.00 0.00 0.00 77
20260902145306 16 63 0.0 3.2 0.00 0.00 0.00 77
20260902145103 16 63 0.0 4.8 0.00 0.00 0.00 78
20260902144901 15 135 1.6 4.8 0.00 0.00 0.00 79
20260902144659 15 104 1.6 4.8 0.00 0.00 0.00 79
20260902144255 15 113 1.6 4.8 0.00 0.00 0.00 80
20260902144054 15 119 3.2 4.8 0.00 0.00 0.00 80
20260902143852 15 47 0.0 4.8 0.00 0.00 0.00 80
20260902143650 14 113 3.2 4.8 0.00 0.00 0.00 80
20260902143448 14 101 3.2 4.8 0.00 0.00 0.00 81
20260902143246 14 106 3.2 4.8 0.00 0.00 0.00 81
20260902143044 14 126 3.2 3.2 0.00 0.00 0.00 82
20260902142842 14 116 3.2 3.2 0.00 0.00 0.00 82
20260902142640 14 111 3.2 0.0 0.00 0.00 0.00 82
20260902142438 13 61 0.0 0.0 0.00 0.00 0.00 82
20260902142236 13 61 0.0 0.0 0.00 0.00 0.00 83
20260902142034 13 61 0.0 0.0 0.00 0.00 0.00 83
20260902141833 13 61 0.0 0.0 0.00 0.00 0.00 84
20260902141631 13 61 0.0 0.0 0.00 0.00 0.00 84
20260902141430 13 61 0.0 0.0 0.00 0.00 0.00 84
20260902141227 13 61 0.0 0.0 0.00 0.00 0.00 84
20260902141027 13 61 0.0 0.0 0.00 0.00 0.00 84
20260902140823 13 61 0.0 0.0 0.00 0.00 0.00 84
20260902140303 13 61 0.0 0.0 0.00 0.00 0.00 85
20260902140217 13 61 0.0 0.0 0.00 0.00 0.00 84
20260902135814 13 61 0.0 0.0 0.00 0.00 0.00 85
20260902135612 13 61 0.0 0.0 0.00 0.00 0.00 85
20260902135410 13 61 0.0 0.0 0.00 0.00 0.00 86
20260902135208 12 61 0.0 0.0 0.00 0.00 0.00 86
20260902134812 12 61 0.0 0.0 0.00 0.00 0.00 85
20260902134604 12 61 0.0 0.0 0.00 0.00 0.00 85
20260902134400 12 61 0.0 0.0 0.00 0.00 0.00 85
20260902134200 12 61 0.0 0.0 0.00 0.00 0.00 85
20260902133958 12 61 0.0 0.0 0.00 0.00 0.00 86
20260902133754 12 61 0.0 0.0 0.00 0.00 0.00 86
20260902133554 12 61 0.0 0.0 0.00 0.00 0.00 86
20260902133151 12 61 0.0 0.0 0.00 0.00 0.00 86
20260902132947 12 61 0.0 0.0 0.00 0.00 0.00 85
20260902132745 12 61 0.0 0.0 0.00 0.00 0.00 86
20260902132543 12 61 0.0 0.0 0.00 0.00 0.00 86
20260902132341 12 61 0.0 0.0 0.00 0.00 0.00 86
20260902132141 12 61 0.0 0.0 0.00 0.00 0.00 86
20260902131937 12 61 0.0 0.0 0.00 0.00 0.00 86
20260902131735 12 61 0.0 0.0 0.00 0.00 0.00 86
20260902131534 12 61 0.0 0.0 0.00 0.00 0.00 86
20260902131332 12 61 0.0 0.0 0.00 0.00 0.00 86
20260902131130 12 61 0.0 0.0 0.00 0.00 0.00 86
20260902130928 12 61 0.0 0.0 0.00 0.00 0.00 86
20260902130524 12 61 0.0 0.0 0.00 0.00 0.00 86
20260902130322 12 61 0.0 0.0 0.00 0.00 0.00 86
20260902130120 12 61 0.0 0.0 0.00 0.00 0.00 86
20260902125918 12 61 0.0 0.0 0.00 0.00 0.00 86
20260902125716 12 61 0.0 0.0 0.00 0.00 0.00 86
20260902125514 12 61 0.0 0.0 0.00 0.00 0.00 86
20260902125313 12 61 0.0 0.0 0.00 0.00 0.00 86
20260902125111 12 61 0.0 0.0 0.00 0.00 0.00 86
20260902124909 12 61 0.0 0.0 0.00 0.00 0.00 86
20260902124707 12 61 0.0 0.0 0.00 0.00 0.00 86
20260902124303 12 61 0.0 0.0 0.00 0.00 0.00 86
20260902124102 12 61 0.0 0.0 0.00 0.00 0.00 86
20260902123859 12 61 0.0 0.0 0.00 0.00 0.00 86
20260902123657 12 61 0.0 0.0 0.00 0.00 0.00 86
20260902123455 12 61 0.0 0.0 0.00 0.00 0.00 87
20260902123254 12 61 0.0 0.0 0.00 0.00 0.00 87
20260902123052 12 61 0.0 0.0 0.00 0.00 0.00 87
20260902122850 12 61 0.0 0.0 0.00 0.00 0.00 86
20260902122648 12 61 0.0 0.0 0.00 0.00 0.00 86
20260902122446 12 61 0.0 0.0 0.00 0.00 0.00 86
20260902122244 12 61 0.0 0.0 0.00 0.00 0.00 87
20260902122042 12 61 0.0 0.0 0.00 0.00 0.00 86
20260902121840 12 61 0.0 0.0 0.00 0.00 0.00 86
20260902121638 12 61 0.0 0.0 0.00 0.00 0.00 86
20260902121436 12 61 0.0 0.0 0.00 0.00 0.00 86
20260902121234 12 61 0.0 0.0 0.00 0.00 0.00 87
20260902121033 12 61 0.0 0.0 0.00 0.00 0.00 87
20260902120831 12 61 0.0 0.0 0.00 0.00 0.00 86
20260902120629 12 61 0.0 0.0 0.00 0.00 0.00 87
20260902120427 12 61 0.0 0.0 0.00 0.00 0.00 87
20260902120023 12 61 0.0 0.0 0.00 0.00 0.00 86
20260902115821 12 61 0.0 0.0 0.00 0.00 0.00 86
20260902115619 12 61 0.0 0.0 0.00 0.00 0.00 86
20260902115417 12 61 0.0 0.0 0.00 0.00 0.00 86
20260902115215 12 61 0.0 0.0 0.00 0.00 0.00 85
20260902115014 12 61 0.0 0.0 0.00 0.00 0.00 85
20260902114812 12 61 0.0 0.0 0.00 0.00 0.00 85
20260902114610 12 61 0.0 0.0 0.00 0.00 0.00 85
20260902114408 12 61 0.0 0.0 0.00 0.00 0.00 85
20260902113802 13 61 0.0 0.0 0.00 0.00 0.00 86
20260902113600 13 61 0.0 0.0 0.00 0.00 0.00 86
20260902113358 13 61 0.0 0.0 0.00 0.00 0.00 86
20260902113156 13 61 0.0 0.0 0.00 0.00 0.00 86
20260902112954 13 61 0.0 0.0 0.00 0.00 0.00 86
20260902112752 13 61 0.0 0.0 0.00 0.00 0.00 86
20260902112551 13 61 0.0 0.0 0.00 0.00 0.00 86
20260902112349 13 61 0.0 0.0 0.00 0.00 0.00 86
20260902112147 13 61 0.0 0.0 0.00 0.00 0.00 86
20260902111945 13 61 0.0 0.0 0.00 0.00 0.00 86
20260902111743 13 61 0.0 6.4 0.00 0.00 0.00 86
20260902111541 13 61 0.0 6.4 0.00 0.00 0.00 86
20260902111339 13 61 0.0 6.4 0.00 0.00 0.00 86
20260902111137 13 61 0.0 0.0 0.00 0.00 0.00 86
20260902110935 13 61 0.0 0.0 0.00 0.00 0.00 86
20260902110734 13 33 0.0 0.0 0.00 0.00 0.00 86
20260902110532 13 33 0.0 0.0 0.00 0.00 0.00 86
20260902110330 13 33 0.0 0.0 0.00 0.00 0.00 86
20260902110128 13 33 0.0 1.6 0.00 0.00 0.00 86
20260902105926 13 33 0.0 1.6 0.00 0.00 0.00 86
20260902105724 13 33 0.0 1.6 0.00 0.00 0.00 87
20260902105522 13 33 0.0 1.6 0.00 0.00 0.00 87
20260902105320 13 33 0.0 1.6 0.00 0.00 0.00 87
20260902105118 13 54 0.0 0.0 0.00 0.00 0.00 87
20260902104916 13 54 0.0 0.0 0.00 0.00 0.00 87
20260902104714 13 54 0.0 3.2 0.00 0.00 0.00 87
20260902104312 13 54 0.0 3.2 0.00 0.00 0.00 87
20260902104111 13 54 0.0 4.8 0.00 0.00 0.00 87
20260902103907 13 73 1.6 4.8 0.00 0.00 0.00 86
20260902103705 13 104 3.2 3.2 0.00 0.00 0.00 86
20260902103503 13 109 3.2 3.2 0.00 0.00 0.00 87
20260902103301 13 70 0.0 3.2 0.00 0.00 0.00 87
20260902103059 13 78 0.0 0.0 0.00 0.00 0.00 87
20260902102857 13 78 0.0 0.0 0.00 0.00 0.00 87
20260902102655 13 78 0.0 0.0 0.00 0.00 0.00 87
20260902102454 13 78 0.0 0.0 0.00 0.00 0.00 87
20260902102050 13 78 0.0 0.0 0.00 0.00 0.00 87
20260902101848 13 78 0.0 0.0 0.00 0.00 0.00 86
20260902101646 13 78 0.0 0.0 0.00 0.00 0.00 86
20260902101444 13 78 0.0 0.0 0.00 0.00 0.00 86
20260902101242 13 78 0.0 0.0 0.00 0.00 0.00 85
20260902101040 13 78 0.0 0.0 0.00 0.00 0.00 85
20260902100838 14 78 0.0 0.0 0.00 0.00 0.00 85
20260902100636 14 78 0.0 3.2 0.00 0.00 0.00 85
20260902100435 14 78 0.0 3.2 0.00 0.00 0.00 85
20260902100233 14 78 0.0 4.8 0.00 0.00 0.00 86
20260902100031 14 78 0.0 4.8 0.00 0.00 0.00 86
20260902095829 14 94 0.0 4.8 0.00 0.00 0.00 86
20260902095627 14 109 4.8 0.0 0.00 0.00 0.00 87
20260902095425 14 50 0.0 0.0 0.00 0.00 0.00 86
20260902095223 14 50 0.0 0.0 0.00 0.00 0.00 87
20260902095021 14 50 0.0 0.0 0.00 0.00 0.00 87
20260902094819 14 50 0.0 0.0 0.00 0.00 0.00 87
20260902094617 14 50 0.0 1.6 0.00 0.00 0.00 87
20260902094416 14 50 0.0 1.6 0.00 0.00 0.00 87
20260902094214 14 50 0.0 3.2 0.00 0.00 0.00 87
20260902094012 14 50 0.0 3.2 0.00 0.00 0.00 87
20260902093810 14 56 0.0 3.2 0.00 0.00 0.00 87
20260902093608 14 46 0.0 6.4 0.00 0.00 0.00 87
20260902093406 14 46 0.0 6.4 0.00 0.00 0.00 87
20260902093204 14 68 0.0 6.4 0.00 0.00 0.00 87
20260902092800 14 85 4.8 6.4 0.00 0.00 0.00 86
20260902092558 14 87 4.8 6.4 0.00 0.00 0.00 86
20260902092357 14 81 1.6 6.4 0.00 0.00 0.00 86
20260902092155 14 143 3.2 6.4 0.00 0.00 0.00 86
20260902091953 14 71 0.0 6.4 0.00 0.00 0.00 86
20260902091751 14 90 1.6 6.4 0.00 0.00 0.00 86
20260902091549 14 101 1.6 4.8 0.00 0.00 0.00 86
20260902091347 14 87 3.2 4.8 0.00 0.00 0.00 86
20260902091145 14 94 3.2 8.0 0.00 0.00 0.00 86
20260902090943 14 82 1.6 8.0 0.00 0.00 0.00 86
20260902090743 14 73 0.0 0.0 0.00 0.00 0.00 86
20260902090339 14 122 3.2 0.0 0.00 0.00 0.00 87
20260902085935 14 291 0.0 0.0 0.00 0.00 0.00 86
20260902085732 14 291 0.0 0.0 0.00 0.00 0.00 86
20260902085530 14 291 0.0 0.0 0.00 0.00 0.00 86
20260902085328 14 291 0.0 0.0 0.00 0.00 0.00 86
20260902085126 14 291 0.0 0.0 0.00 0.00 0.00 86
20260902084926 14 291 0.0 0.0 0.00 0.00 0.00 87
20260902084520 14 291 0.0 0.0 0.00 0.00 0.00 87
20260902084318 14 291 0.0 0.0 0.00 0.00 0.00 87
20260902084117 14 291 0.0 0.0 0.00 0.00 0.00 87
20260902083916 14 291 0.0 0.0 0.00 0.00 0.00 87
20260902083713 14 291 0.0 0.0 0.00 0.00 0.00 87
20260902083512 14 291 0.0 0.0 0.00 0.00 0.00 87
20260902083309 14 291 0.0 0.0 0.00 0.00 0.00 86
20260902083107 14 291 0.0 0.0 0.00 0.00 0.00 86
20260902082907 14 291 0.0 0.0 0.00 0.00 0.00 86
20260902082703 14 291 0.0 0.0 0.00 0.00 0.00 86
20260902082501 14 291 0.0 0.0 0.00 0.00 0.00 86
20260902082259 14 291 0.0 0.0 0.00 0.00 0.00 86
20260902082057 14 291 0.0 0.0 0.00 0.00 0.00 86
20260902081856 14 291 0.0 0.0 0.00 0.00 0.00 86
20260902081453 14 291 0.0 0.0 0.00 0.00 0.00 86
20260902081250 14 291 0.0 0.0 0.00 0.00 0.00 86
20260902081048 14 291 0.0 0.0 0.00 0.00 0.00 86
20260902080846 14 291 0.0 0.0 0.00 0.00 0.00 86
20260902080644 14 291 0.0 0.0 0.00 0.00 0.00 86
20260902080442 14 291 0.0 0.0 0.00 0.00 0.00 86
20260902080240 14 291 0.0 0.0 0.00 0.00 0.00 86
20260902080040 14 291 0.0 0.0 0.00 0.00 0.00 86
20260902075837 14 291 0.0 0.0 0.00 0.00 0.00 86
20260902075635 14 291 0.0 0.0 0.00 0.00 0.00 86
20260902075433 14 291 0.0 0.0 0.00 0.00 0.00 86
20260902075231 13 291 0.0 0.0 0.00 0.00 0.00 85
20260902075029 13 291 0.0 0.0 0.00 0.00 0.00 85
20260902074827 14 291 0.0 0.0 0.00 0.00 0.00 85
20260902074625 14 291 0.0 0.0 0.00 0.00 0.00 85
20260902074423 14 291 0.0 0.0 0.00 0.00 0.00 85
20260902074221 14 291 0.0 0.0 0.00 0.00 0.00 85
20260902074019 14 291 0.0 0.0 0.00 0.00 0.00 85
20260902073817 14 291 0.0 0.0 0.00 0.00 0.00 85
20260902073616 15 291 0.0 0.0 0.00 0.00 0.00 85
20260902073414 15 291 0.0 0.0 0.00 0.00 0.00 85
20260902073212 15 291 0.0 0.0 0.00 0.00 0.00 85
20260902073010 15 291 0.0 0.0 0.00 0.00 0.00 85
20260902072808 15 291 0.0 0.0 0.00 0.00 0.00 85
20260902072606 15 291 0.0 0.0 0.00 0.00 0.00 85
20260902072404 15 291 0.0 0.0 0.00 0.00 0.00 85
20260902072202 15 291 0.0 0.0 0.00 0.00 0.00 84
20260902072002 15 291 0.0 0.0 0.00 0.00 0.00 84
20260902071758 15 291 0.0 0.0 0.00 0.00 0.00 84
20260902071556 15 291 0.0 0.0 0.00 0.00 0.00 84
20260902071355 15 291 0.0 0.0 0.00 0.00 0.00 84
20260902071155 15 291 0.0 0.0 0.00 0.00 0.00 84
20260902070951 15 291 0.0 0.0 0.00 0.00 0.00 84
20260902070749 15 291 0.0 0.0 0.00 0.00 0.00 84
20260902070547 15 291 0.0 0.0 0.00 0.00 0.00 84
20260902070347 15 291 0.0 0.0 0.00 0.00 0.00 84
20260902070145 15 291 0.0 0.0 0.00 0.00 0.00 84
20260902065943 15 291 0.0 0.0 0.00 0.00 0.00 84
20260902065739 15 291 0.0 0.0 0.00 0.00 0.00 83
20260902065539 15 291 0.0 0.0 0.00 0.00 0.00 84
20260902064932 15 291 0.0 3.2 0.00 0.00 0.00 83
20260902064730 15 291 0.0 3.2 0.00 0.00 0.00 83
20260902064528 15 291 0.0 3.2 0.00 0.00 0.00 83
20260902064326 15 306 0.0 3.2 0.00 0.00 0.00 83
20260902064124 15 305 3.2 0.0 0.00 0.00 0.00 83
20260902063924 15 282 0.0 0.0 0.00 0.00 0.00 83
20260902063720 15 282 0.0 3.2 0.00 0.00 0.00 83
20260902063520 15 282 0.0 3.2 0.00 0.00 0.00 83
20260902063317 15 282 0.0 3.2 0.00 0.00 0.00 83
20260902063116 15 298 0.0 0.0 0.00 0.00 0.00 83
20260902062915 15 302 1.6 0.0 0.00 0.00 0.00 83
20260902062711 15 12 0.0 0.0 0.00 0.00 0.00 83
20260902062511 15 12 0.0 0.0 0.00 0.00 0.00 83
20260902062309 15 12 0.0 0.0 0.00 0.00 0.00 83
20260902062105 15 12 0.0 0.0 0.00 0.00 0.00 83
20260902061701 16 12 0.0 0.0 0.00 0.00 0.00 82
20260902061257 16 12 0.0 0.0 0.00 0.00 0.00 83
20260902061056 16 12 0.0 0.0 0.00 0.00 0.00 83
20260902060856 16 12 0.0 0.0 0.00 0.00 0.00 83
20260902060450 16 12 0.0 0.0 0.00 0.00 0.00 83
20260902060250 16 12 0.0 0.0 0.00 0.00 0.00 82
20260902060046 16 12 0.0 0.0 0.00 0.00 0.00 82
20260902055642 16 12 0.0 0.0 0.00 0.00 0.00 82
20260902055442 16 12 0.0 0.0 0.00 0.00 0.00 82
20260902055240 16 12 0.0 0.0 0.00 0.00 0.00 82
20260902055038 16 12 0.0 0.0 0.00 0.00 0.00 82
20260902054837 16 12 0.0 0.0 0.00 0.00 0.00 82
20260902054433 16 12 0.0 0.0 0.00 0.00 0.00 82
20260902054229 16 12 0.0 0.0 0.00 0.00 0.00 82
20260902054029 16 12 0.0 0.0 0.00 0.00 0.00 82
20260902053827 16 12 0.0 0.0 0.00 0.00 0.00 82
20260902053623 16 12 0.0 0.0 0.00 0.00 0.00 82
20260902052816 16 12 0.0 1.6 0.00 0.00 0.00 80
20260902052614 16 12 0.0 0.0 0.00 0.00 0.00 79
20260902052412 16 12 0.0 0.0 0.00 0.00 0.00 79
20260902052008 17 12 0.0 0.0 0.00 0.00 0.00 79
20260902051806 17 12 0.0 0.0 0.00 0.00 0.00 79
20260902051606 17 12 0.0 3.2 0.00 0.00 0.00 80
20260902051404 17 12 0.0 3.2 0.00 0.00 0.00 80
20260902051202 17 12 0.0 0.0 0.00 0.00 0.00 79
20260902050958 17 12 0.0 0.0 0.00 0.00 0.00 79
20260902050756 17 16 0.0 0.0 0.00 0.00 0.00 79
20260902050555 17 16 0.0 0.0 0.00 0.00 0.00 80
20260902050355 17 16 0.0 0.0 0.00 0.00 0.00 80
20260902045950 17 16 0.0 1.6 0.00 0.00 0.00 79
20260902045749 17 16 0.0 1.6 0.00 0.00 0.00 79
20260902045343 17 288 0.0 0.0 0.00 0.00 0.00 79
20260902045143 17 288 0.0 0.0 0.00 0.00 0.00 79
20260902044941 17 288 0.0 0.0 0.00 0.00 0.00 79
20260902044737 17 288 0.0 0.0 0.00 0.00 0.00 78
20260902044537 17 288 0.0 0.0 0.00 0.00 0.00 78
20260902044334 17 288 0.0 0.0 0.00 0.00 0.00 78
20260902044132 17 288 0.0 0.0 0.00 0.00 0.00 78
20260902043931 17 288 0.0 0.0 0.00 0.00 0.00 78
20260902043728 18 288 0.0 0.0 0.00 0.00 0.00 78
20260902043526 18 288 0.0 0.0 0.00 0.00 0.00 77
20260902043326 18 288 0.0 0.0 0.00 0.00 0.00 77
20260902043122 18 288 0.0 0.0 0.00 0.00 0.00 77
20260902042920 18 288 0.0 0.0 0.00 0.00 0.00 77
20260902042718 18 288 0.0 0.0 0.00 0.00 0.00 77
20260902042518 18 288 0.0 0.0 0.00 0.00 0.00 76
20260902042315 18 288 0.0 0.0 0.00 0.00 0.00 76
20260902041913 18 288 0.0 0.0 0.00 0.00 0.00 77
20260902041710 18 288 0.0 3.2 0.00 0.00 0.00 77
20260902041509 18 288 0.0 3.2 0.00 0.00 0.00 77
20260902041307 18 288 0.0 3.2 0.00 0.00 0.00 77
20260902041103 18 288 0.0 4.8 0.00 0.00 0.00 77
20260902040901 18 299 1.6 4.8 0.00 0.00 0.00 77
20260902040701 18 298 1.6 6.4 0.00 0.00 0.00 77
20260902040457 18 309 3.2 6.4 0.00 0.00 0.00 76
20260902040255 18 312 3.2 6.4 0.00 0.00 0.00 75
20260902040056 18 310 3.2 3.2 0.00 0.00 0.00 75
20260902035854 18 303 3.2 3.2 0.00 0.00 0.00 74
20260902035650 18 303 1.6 3.2 0.00 0.00 0.00 74
20260902035450 18 306 1.6 3.2 0.00 0.00 0.00 74
20260902035248 18 277 0.0 3.2 0.00 0.00 0.00 74
20260902035046 18 296 1.6 8.0 0.00 0.00 0.00 74
20260902034844 18 296 1.6 8.0 0.00 0.00 0.00 74
20260902034640 18 295 3.2 8.0 0.00 0.00 0.00 74
20260902034438 18 293 4.8 8.0 0.00 0.00 0.00 74
20260902034238 18 293 3.2 0.0 0.00 0.00 0.00 73
20260902034036 18 286 3.2 0.0 0.00 0.00 0.00 73
20260902033835 18 285 3.2 0.0 0.00 0.00 0.00 73
20260902033631 18 260 0.0 0.0 0.00 0.00 0.00 72
20260902033429 19 260 0.0 0.0 0.00 0.00 0.00 71
20260902033229 19 260 0.0 0.0 0.00 0.00 0.00 70
20260902033027 19 260 0.0 0.0 0.00 0.00 0.00 70
20260902032823 19 260 0.0 0.0 0.00 0.00 0.00 70
20260902032621 19 260 0.0 1.6 0.00 0.00 0.00 69
20260902032217 19 257 0.0 3.2 0.00 0.00 0.00 68
20260902032016 19 257 0.0 3.2 0.00 0.00 0.00 68
20260902031612 20 265 0.0 0.0 0.00 0.00 0.00 68
20260902031410 19 257 0.0 0.0 0.00 0.00 0.00 67
20260902031208 20 257 0.0 0.0 0.00 0.00 0.00 67
20260902031008 20 257 0.0 0.0 0.00 0.00 0.00 67
20260902030806 20 257 0.0 0.0 0.00 0.00 0.00 66
20260902030602 20 257 0.0 0.0 0.00 0.00 0.00 66
20260902030400 20 257 0.0 0.0 0.00 0.00 0.00 66
20260902030158 20 257 0.0 0.0 0.00 0.00 0.00 66
20260902025957 20 257 0.0 0.0 0.00 0.00 0.00 65
20260902025756 20 257 0.0 0.0 0.00 0.00 0.00 65
20260902025554 20 257 0.0 0.0 0.00 0.00 0.00 65
20260902025351 20 257 0.0 0.0 0.00 0.00 0.00 64
20260902025149 20 257 0.0 8.0 0.00 0.00 0.00 64
20260902024947 20 257 0.0 8.0 0.00 0.00 0.00 64
20260902024745 20 257 0.0 4.8 0.00 0.00 0.00 63
20260902024543 20 257 0.0 4.8 0.00 0.00 0.00 63
20260902024341 20 296 0.0 4.8 0.00 0.00 0.00 63
20260902024140 20 288 3.2 4.8 0.00 0.00 0.00 62
20260902023737 20 250 0.0 4.8 0.00 0.00 0.00 61
20260902023533 21 250 0.0 4.8 0.00 0.00 0.00 60
20260902023333 21 250 0.0 4.8 0.00 0.00 0.00 60
20260902022929 21 275 4.8 11.3 0.00 0.00 0.00 59
20260902022725 21 286 3.2 9.7 0.00 0.00 0.00 58
20260902022524 21 282 3.2 9.7 0.00 0.00 0.00 58
20260902022322 21 298 1.6 9.7 0.00 0.00 0.00 57
20260902022120 21 285 3.2 9.7 0.00 0.00 0.00 57
20260902021918 21 272 6.4 9.7 0.00 0.00 0.00 57
20260902021716 21 288 6.4 11.3 0.00 0.00 0.00 56
20260902021515 22 281 6.4 11.3 0.00 0.00 0.00 56
20260902021312 22 260 0.0 11.3 0.00 0.00 0.00 55
20260902021112 22 267 8.0 12.9 0.00 0.00 0.00 55
20260902020909 22 255 6.4 12.9 0.00 0.00 0.00 55
20260902020708 22 264 8.0 14.5 0.00 0.00 0.00 55
20260902020303 22 267 8.0 14.5 0.00 0.00 0.00 54
20260902015900 22 279 8.0 14.5 0.00 0.00 0.00 54
20260902015658 22 264 11.3 12.9 0.00 0.00 0.00 53
20260902015456 22 275 9.7 12.9 0.00 0.00 0.00 53
20260902015253 22 285 9.7 12.9 0.00 0.00 0.00 53
20260902015052 22 271 9.7 12.9 0.00 0.00 0.00 53
20260902014850 22 272 9.7 12.9 0.00 0.00 0.00 53
20260902014646 23 260 4.8 12.9 0.00 0.00 0.00 53
20260902014444 23 274 8.0 12.9 0.00 0.00 0.00 53
20260902014242 23 282 8.0 14.5 0.00 0.00 0.00 53
20260902014042 23 286 6.4 14.5 0.00 0.00 0.00 53
20260902013841 23 274 9.7 14.5 0.00 0.00 0.00 53
20260902013638 23 282 6.4 14.5 0.00 0.00 0.00 53
20260902013435 23 277 12.9 14.5 0.00 0.00 0.00 52
20260902013234 23 265 11.3 12.9 0.00 0.00 0.00 52
20260902013032 23 285 12.9 12.9 0.00 0.00 0.00 51
20260902012830 23 271 6.4 12.9 0.00 0.00 0.00 52
20260902012627 23 286 8.0 14.5 0.00 0.00 0.00 52
20260902012425 23 286 8.0 14.5 0.00 0.00 0.00 52
20260902012224 23 271 3.2 14.5 0.00 0.00 0.00 52
20260902012030 23 268 12.9 14.5 0.00 0.00 0.00 52
20260902012022 23 268 12.9 14.5 0.00 0.00 0.00 52
20260902011821 23 272 11.3 14.5 0.00 0.00 0.00 52
20260902011618 23 271 6.4 12.9 0.00 0.00 0.00 52
20260902011417 23 265 12.9 12.9 0.00 0.00 0.00 51
20260902011215 23 264 9.7 16.1 0.00 0.00 0.00 52
20260902010810 23 286 6.4 16.1 0.00 0.00 0.00 52
20260902010612 23 278 9.7 17.7 0.00 0.00 0.00 52
20260902010608 23 278 9.7 17.7 0.00 0.00 0.00 52
20260902010405 23 298 6.4 17.7 0.00 0.00 0.00 53
20260902010205 23 261 8.0 14.5 0.00 0.00 0.00 53
20260902005759 23 281 9.7 14.5 0.00 0.00 0.00 52
20260902005557 23 316 6.4 16.1 0.00 0.00 0.00 52
20260902005355 23 278 12.9 16.1 0.00 0.00 0.00 51
20260902005153 23 244 1.6 14.5 0.00 0.00 0.00 52
20260902004953 23 274 6.4 14.5 0.00 0.00 0.00 52
20260902004751 23 262 12.9 14.5 0.00 0.00 0.00 52
20260902004547 24 285 9.7 16.1 0.00 0.00 0.00 52
20260902004346 24 272 8.0 16.1 0.00 0.00 0.00 52
20260902004144 23 253 9.7 17.7 0.00 0.00 0.00 52
20260902003943 23 272 4.8 17.7 0.00 0.00 0.00 53
20260902003740 24 274 12.9 19.3 0.00 0.00 0.00 52
20260902003538 23 279 11.3 19.3 0.00 0.00 0.00 52
20260902003336 23 278 9.7 19.3 0.00 0.00 0.00 52
20260902003134 23 274 8.0 17.7 0.00 0.00 0.00 53
20260902002932 23 289 11.3 17.7 0.00 0.00 0.00 53
20260902002326 24 272 11.3 17.7 0.00 0.00 0.00 52
20260902002124 24 264 9.7 19.3 0.00 0.00 0.00 51
20260902001923 24 296 8.0 19.3 0.00 0.00 0.00 52
20260902001720 24 261 11.3 19.3 0.00 0.00 0.00 52
20260902001518 24 272 14.5 19.3 0.00 0.00 0.00 52
20260902001316 24 286 12.9 19.3 0.00 0.00 0.00 52
20260902001116 25 247 12.9 16.1 0.00 0.00 0.00 51
20260902000912 25 279 8.0 16.1 0.00 0.00 0.00 51
20260902000712 24 277 9.7 20.9 0.00 0.00 0.00 52
20260902000508 25 284 8.0 20.9 0.00 0.00 0.00 52
20260902000308 24 277 4.8 20.9 0.00 0.00 0.00 52
20260902000104 24 251 8.0 20.9 0.00 0.00 0.00 53
20260901235904 23 279 14.5 20.9 0.00 0.00 0.00 52
20260901235701 24 241 17.7 24.1 0.00 0.00 0.00 52
20260901235500 24 271 8.0 24.1 0.00 0.00 0.00 52
20260901235257 24 282 11.3 24.1 0.00 0.00 0.00 53
20260901235056 24 250 11.3 24.1 0.00 0.00 0.00 54
20260901234853 23 261 14.5 24.1 0.00 0.00 0.00 53
20260901234652 23 289 14.5 20.9 0.00 0.00 0.00 53
20260901234449 23 293 9.7 20.9 0.00 0.00 0.00 53
20260901234247 24 265 14.5 20.9 0.00 0.00 0.00 52
20260901234045 24 248 8.0 20.9 0.00 0.00 0.00 53
20260901233845 24 261 12.9 20.9 0.00 0.00 0.00 53
20260901233641 24 284 11.3 20.9 0.00 0.00 0.00 52
20260901233441 24 275 11.3 20.9 0.00 0.00 0.00 52
20260901233035 25 258 14.5 20.9 0.00 0.00 0.00 52
20260901232835 25 271 11.3 20.9 0.00 0.00 0.00 52
20260901232631 24 271 12.9 22.5 0.00 0.00 0.00 52
20260901232429 24 275 16.1 22.5 0.00 0.00 0.00 52
20260901232227 24 260 19.3 22.5 0.00 0.00 0.00 52
20260901232027 25 268 14.5 22.5 0.00 0.00 0.00 51
20260901231825 25 198 6.4 22.5 0.00 0.00 0.00 52
20260901231621 25 255 20.9 22.5 0.00 0.00 0.00 52
20260901231421 25 258 17.7 22.5 0.00 0.00 0.00 51
20260901231017 25 271 0.0 19.3 0.00 0.00 0.00 51
20260901230815 25 222 1.6 19.3 0.00 0.00 0.00 51
20260901230411 25 268 19.3 20.9 0.00 0.00 0.00 51
20260901230210 25 258 8.0 17.7 0.00 0.00 0.00 51
20260901230006 25 258 12.9 17.7 0.00 0.00 0.00 51
20260901225805 25 248 14.5 17.7 0.00 0.00 0.00 50
20260901225602 25 230 8.0 24.1 0.00 0.00 0.00 51
20260901225402 25 258 12.9 24.1 0.00 0.00 0.00 51
20260901225200 25 203 1.6 22.5 0.00 0.00 0.00 51
20260901224957 25 241 17.7 22.5 0.00 0.00 0.00 51
20260901224756 25 267 4.8 22.5 0.00 0.00 0.00 51
20260901224554 25 270 9.7 24.1 0.00 0.00 0.00 51
20260901224352 25 229 9.7 24.1 0.00 0.00 0.00 51
20260901224151 25 281 14.5 20.9 0.00 0.00 0.00 51
20260901223948 25 192 1.6 20.9 0.00 0.00 0.00 52
20260901223749 25 199 8.0 25.7 0.00 0.00 0.00 52
20260901223543 25 258 14.5 25.7 0.00 0.00 0.00 52
20260901223342 25 251 14.5 25.7 0.00 0.00 0.00 52
20260901223141 25 264 12.9 27.4 0.00 0.00 0.00 52
20260901222937 25 264 20.9 27.4 0.00 0.00 0.00 51
20260901222736 25 251 16.1 30.6 0.00 0.00 0.00 51
20260901222534 25 253 14.5 30.6 0.00 0.00 0.00 51
20260901222333 25 262 14.5 30.6 0.00 0.00 0.00 51
20260901221727 25 243 17.7 25.7 0.00 0.00 0.00 50
20260901221523 25 271 9.7 25.7 0.00 0.00 0.00 49
20260901221323 25 262 17.7 25.7 0.00 0.00 0.00 49
20260901221121 25 282 16.1 24.1 0.00 0.00 0.00 50
20260901220920 25 268 14.5 24.1 0.00 0.00 0.00 48
20260901220717 25 232 17.7 25.7 0.00 0.00 0.00 49
20260901220513 26 264 17.7 25.7 0.00 0.00 0.00 50
20260901220313 25 275 8.0 25.7 0.00 0.00 0.00 50
20260901220116 25 265 12.9 24.1 0.00 0.00 0.00 50
20260901220111 25 265 12.9 24.1 0.00 0.00 0.00 50
20260901215909 25 285 17.7 24.1 0.00 0.00 0.00 50
20260901215707 25 257 17.7 25.7 0.00 0.00 0.00 50
20260901215306 25 272 12.9 25.7 0.00 0.00 0.00 51
20260901215102 25 262 12.9 22.5 0.00 0.00 0.00 51
20260901214900 25 247 24.1 22.5 0.00 0.00 0.00 51
20260901214456 25 260 20.9 29.0 0.00 0.00 0.00 52
20260901214254 25 246 16.1 29.0 0.00 0.00 0.00 52
20260901214050 25 272 22.5 27.4 0.00 0.00 0.00 52
20260901213850 25 270 24.1 27.4 0.00 0.00 0.00 51
20260901213648 25 251 19.3 27.4 0.00 0.00 0.00 50
20260901213446 25 255 11.3 27.4 0.00 0.00 0.00 51
20260901213244 25 246 19.3 25.7 0.00 0.00 0.00 51
20260901213042 25 265 14.5 25.7 0.00 0.00 0.00 51
20260901212840 25 254 20.9 25.7 0.00 0.00 0.00 51
20260901212638 25 262 16.1 25.7 0.00 0.00 0.00 51
20260901212436 25 279 19.3 25.7 0.00 0.00 0.00 51
20260901212234 25 268 20.9 24.1 0.00 0.00 0.00 50
20260901212032 26 265 24.1 24.1 0.00 0.00 0.00 49
20260901211830 26 260 16.1 24.1 0.00 0.00 0.00 50
20260901211628 25 264 12.9 32.2 0.00 0.00 0.00 50
20260901211426 26 272 14.5 32.2 0.00 0.00 0.00 51
20260901211225 26 261 14.5 27.4 0.00 0.00 0.00 51
20260901211023 25 265 12.9 27.4 0.00 0.00 0.00 51
20260901210618 25 278 22.5 27.4 0.00 0.00 0.00 51
20260901210417 25 291 9.7 27.4 0.00 0.00 0.00 51
20260901210213 25 247 8.0 29.0 0.00 0.00 0.00 51
20260901210011 25 267 22.5 29.0 0.00 0.00 0.00 51
20260901205811 25 265 20.9 29.0 0.00 0.00 0.00 51
20260901205609 26 232 20.9 24.1 0.00 0.00 0.00 49
20260901205407 26 271 12.9 24.1 0.00 0.00 0.00 50
20260901205003 26 261 9.7 27.4 0.00 0.00 0.00 50
20260901204759 25 277 6.4 27.4 0.00 0.00 0.00 51
20260901204559 25 271 20.9 27.4 0.00 0.00 0.00 51
20260901204357 25 267 20.9 27.4 0.00 0.00 0.00 50
20260901204156 26 234 12.9 24.1 0.00 0.00 0.00 50
20260901203952 26 285 16.1 24.1 0.00 0.00 0.00 49
20260901203347 26 268 12.9 20.9 0.00 0.00 0.00 49
20260901203145 26 264 16.1 24.1 0.00 0.00 0.00 49
20260901202943 26 279 11.3 24.1 0.00 0.00 0.00 48
20260901202740 26 261 9.7 24.1 0.00 0.00 0.00 49
20260901202338 26 293 11.3 24.1 0.00 0.00 0.00 48
20260901201934 26 261 16.1 22.5 0.00 0.00 0.00 47
20260901201732 26 278 11.3 24.1 0.00 0.00 0.00 46
20260901201530 26 261 16.1 24.1 0.00 0.00 0.00 47
20260901201126 26 258 14.5 20.9 0.00 0.00 0.00 48
20260901200924 26 267 9.7 20.9 0.00 0.00 0.00 47
20260901200520 26 265 14.5 20.9 0.00 0.00 0.00 47
20260901200318 26 250 14.5 20.9 0.00 0.00 0.00 47
20260901200116 26 243 6.4 20.9 0.00 0.00 0.00 48
20260901195914 26 271 12.9 20.9 0.00 0.00 0.00 47
20260901195712 26 240 9.7 24.1 0.00 0.00 0.00 47
20260901195510 26 275 14.5 24.1 0.00 0.00 0.00 48
20260901195309 26 285 6.4 24.1 0.00 0.00 0.00 47
20260901195106 26 275 12.9 17.7 0.00 0.00 0.00 48
20260901194904 26 257 17.7 17.7 0.00 0.00 0.00 47
20260901194703 26 286 9.7 25.7 0.00 0.00 0.00 47
20260901194501 26 275 14.5 25.7 0.00 0.00 0.00 48
20260901194259 26 246 14.5 25.7 0.00 0.00 0.00 47
20260901194056 26 261 19.3 16.1 0.00 0.00 0.00 46
20260901193855 26 264 16.1 16.1 0.00 0.00 0.00 45
20260901193047 26 227 4.8 22.5 0.00 0.00 0.00 47
20260901192843 26 264 8.0 22.5 0.00 0.00 0.00 46
20260901192643 26 260 16.1 22.5 0.00 0.00 0.00 46
20260901192441 26 274 9.7 22.5 0.00 0.00 0.00 46
20260901192237 26 271 11.3 24.1 0.00 0.00 0.00 46
20260901192036 26 258 9.7 24.1 0.00 0.00 0.00 47
20260901191836 26 277 6.4 24.1 0.00 0.00 0.00 47
20260901191633 25 262 20.9 24.1 0.00 0.00 0.00 47
20260901191431 26 271 17.7 24.1 0.00 0.00 0.00 47
20260901191228 26 295 9.7 19.3 0.00 0.00 0.00 46
20260901191027 26 264 3.2 19.3 0.00 0.00 0.00 46
20260901190823 25 257 12.9 19.3 0.00 0.00 0.00 47
20260901190422 25 255 14.5 14.5 0.00 0.00 0.00 48
20260901190220 25 310 4.8 17.7 0.00 0.00 0.00 49
20260901190016 25 271 9.7 17.7 0.00 0.00 0.00 48
20260901185816 25 270 8.0 17.7 0.00 0.00 0.00 48
20260901185612 25 281 11.3 19.3 0.00 0.00 0.00 48
20260901185210 25 260 9.7 14.5 0.00 0.00 0.00 49
20260901185008 25 268 17.7 14.5 0.00 0.00 0.00 49
20260901184602 25 277 9.7 12.9 0.00 0.00 0.00 48
20260901184402 25 271 11.3 12.9 0.00 0.00 0.00 48
20260901184159 25 298 4.8 16.1 0.00 0.00 0.00 50
20260901183958 25 275 8.0 16.1 0.00 0.00 0.00 51
20260901183754 25 236 0.0 16.1 0.00 0.00 0.00 52
20260901183554 25 281 11.3 17.7 0.00 0.00 0.00 52
20260901183352 25 307 8.0 17.7 0.00 0.00 0.00 52
20260901183150 24 281 11.3 17.7 0.00 0.00 0.00 52
20260901182948 25 250 9.7 17.7 0.00 0.00 0.00 54
20260901182744 25 275 8.0 14.5 0.00 0.00 0.00 53
20260901182542 24 270 11.3 14.5 0.00 0.00 0.00 54
20260901182342 24 262 16.1 14.5 0.00 0.00 0.00 53
20260901182140 24 260 11.3 16.1 0.00 0.00 0.00 55
20260901181938 24 241 4.8 16.1 0.00 0.00 0.00 56
20260901181737 24 199 0.0 17.7 0.00 0.00 0.00 56
20260901181534 24 271 16.1 17.7 0.00 0.00 0.00 56
20260901181332 24 255 8.0 17.7 0.00 0.00 0.00 56
20260901181130 24 255 11.3 16.1 0.00 0.00 0.00 56
20260901180930 24 277 11.3 16.1 0.00 0.00 0.00 56
20260901180727 24 262 9.7 16.1 0.00 0.00 0.00 56
20260901180524 24 274 8.0 16.1 0.00 0.00 0.00 56
20260901180321 24 232 0.0 16.1 0.00 0.00 0.00 57
20260901175717 25 277 11.3 12.9 0.00 0.00 0.00 54
20260901175515 25 239 1.6 12.9 0.00 0.00 0.00 54
20260901175111 25 300 6.4 6.4 0.00 0.00 0.00 53
20260901174909 25 125 0.0 6.4 0.00 0.00 0.00 55
20260901174710 25 125 0.0 8.0 0.00 0.00 0.00 54
20260901174303 24 143 0.0 8.0 0.00 0.00 0.00 57
20260901174100 23 191 0.0 1.6 0.00 0.00 0.00 56
20260901173859 23 264 3.2 1.6 0.00 0.00 0.00 59
20260901173453 23 57 0.0 6.4 0.00 0.00 0.00 62
20260901173251 22 213 0.0 6.4 0.00 0.00 0.00 63
20260901173051 22 240 1.6 4.8 0.00 0.00 0.00 63
20260901172847 22 316 3.2 4.8 0.00 0.00 0.00 62
20260901172645 22 296 0.0 3.2 0.00 0.00 0.00 66
20260901172241 21 310 0.0 8.0 0.00 0.00 0.00 69
20260901172039 21 234 1.6 8.0 0.00 0.00 0.00 70
20260901171838 21 198 0.0 8.0 0.00 0.00 0.00 71
20260901171635 20 198 0.0 11.3 0.00 0.00 0.00 72
20260901171433 20 229 3.2 11.3 0.00 0.00 0.00 72
20260901171232 20 237 1.6 12.9 0.00 0.00 0.00 72
20260901171225 20 281 9.7 12.9 0.00 0.00 0.00 73
20260901171031 20 281 9.7 12.9 0.00 0.00 0.00 73
20260901170830 20 307 3.2 12.9 0.00 0.00 0.00 75
20260901170425 19 310 3.2 11.3 0.00 0.00 0.00 76
20260901170224 19 298 6.4 12.9 0.00 0.00 0.00 76